This is the latest recevied weather packets stored in our database for station/object KMASWX. If no packets are shown the sender has not sent any weather packets the latest 1 day(s).
| Time | Temp. | Humidity | Pressure | Rain* | Wind** | Luminosity | Snow |
|---|---|---|---|---|---|---|---|
| 1778036815 | 24.44° C | 28% | - | 0 mm | 0 m/s | - | - |
| 1778036509 | 25.56° C | 26% | - | 0 mm | 0 m/s | - | - |
| 1778036205 | 26.11° C | 24% | - | 0 mm | 0 m/s | - | - |
| 1778035901 | 26.11° C | 23% | - | 0 mm | 1.34 m/s, 271° | - | - |
| 1778035594 | 26.67° C | 22% | - | 0 mm | 1.79 m/s, 257° | - | - |
| 1778035290 | 26.67° C | 22% | - | 0 mm | 2.24 m/s, 260° | - | - |
| 1778034987 | 27.22° C | 21% | - | 0 mm | 1.34 m/s, 261° | - | - |
| 1778034683 | 27.78° C | 19% | - | 0 mm | 1.34 m/s, 215° | - | - |
| 1778034376 | 27.78° C | 19% | - | 0 mm | 0.89 m/s, 199° | - | - |
| 1778034072 | 28.33° C | 19% | - | 0 mm | 0 m/s | - | - |
| 1778033765 | 28.33° C | 18% | - | 0 mm | 0 m/s | - | - |
| 1778033461 | 28.33° C | 18% | - | 0 mm | 0.89 m/s, 153° | - | - |
| 1778033157 | 28.33° C | 18% | - | 0 mm | 0.89 m/s, 151° | - | - |
| 1778032850 | 28.33° C | 17% | - | 0 mm | 2.24 m/s, 142° | - | - |
| 1778032547 | 28.33° C | 18% | - | 0 mm | 1.79 m/s, 118° | - | - |
| 1778032243 | 28.33° C | 18% | - | 0 mm | 2.68 m/s, 158° | - | - |
| 1778031936 | 28.33° C | 17% | - | 0 mm | 1.79 m/s, 158° | - | - |
| 1778031633 | 28.33° C | 17% | - | 0 mm | 2.24 m/s, 129° | - | - |
| 1778031328 | 28.33° C | 18% | - | 0 mm | 2.24 m/s, 170° | - | - |
| 1778031025 | 28.33° C | 17% | - | 0 mm | 2.24 m/s, 177° | - | - |
| 1778030721 | 28.33° C | 17% | - | 0 mm | 2.24 m/s, 199° | - | - |
| 1778030415 | 28.33° C | 17% | - | 0 mm | 2.24 m/s, 136° | - | - |
| 1778030112 | 28.89° C | 17% | - | 0 mm | 1.34 m/s, 156° | - | - |
| 1778029808 | 28.89° C | 16% | - | 0 mm | 1.34 m/s, 165° | - | - |
| 1778029501 | 28.33° C | 18% | - | 0 mm | 0 m/s | - | - |
* Rain latest 24 hours (hover to see other rain measurements)
** Current wind speed in m/s (hover to see current wind gust speed)